Погода Нижний Тагил

Погода Нижний Тагил : погода сейчас, прогноз погоды и архив. Всё, что Вы хотите узнать о погоде Нижний Тагил!

Хотите узнать прогноз погоды Нижний Тагил? Тогда Вам сюда: Погода Нижний Тагил

Поиск расширенной информации на нашем сайте:

Другие новости

Новости СМИ2

Главная страница сайта

Новости сайта

03.07.2017

Напоминаем, что на нашем специализированном сайте Метеоцентр.Азия вы можете получить высокодетализированные автоматические прогнозы погоды по пунктам России, СНГ и мира в авиационном формате (включающие направление и скорость ветра, видимость, явления погоды, количество и форму облачности, нижнюю и верхнюю границу облачности).

Рекомендуем: Сравнить цены на лазерная гравировка.

Погода Нижний Тагил - сегодня

Время (UTC), дата Ветер
(°,м/с) 
Видим.   Явления Облачность Т
(°С)
Тd
(°С)
f(%) Тe
(°С)
Pmin
(гПа)
dP
(гПа)
Po
(мм)
O2
(г/м3)
Тmin Tmax R s Состояние
почвы
18 17.07.17 090 (В) 20000 м  {гроза}  3/3 600 м 
[Sc]
+13.2 +12.4 95 +19  1016.3  739  282           
21 17.07.17 110 (В) 20000 м    ясно 
+9.9 +9.7 99 +12  1017.6  0.8  740  286           
00 18.07.17 090 (В) 4000 м  дымка  ясно 
+9 +8.9 99 +10  1018  0.4  740  287           
03 18.07.17 320 (СЗ) 4000 м  дымка{туман}  ясно 
+16.1 +14.6 91 +25  1018.1  0.9  741  279  +7.9        сухая 
06 18.07.17 100 (В) 20000 м  {туман}  3/0 средняя 
[Ac und]
+21.5 +12.2 55 +26  1017.6  741  274           
09 18.07.17 090 (В) 20000 м    5/3 600 м средняя 
[Cu med, cong|Ac und]
+22.3 +11.4 50 +26  1017.2  -0.3  740  274           
12 18.07.17 120 (ЮВ) 20000 м    6/6 600 м кучево-дожд. 
[Cb cap]
+24.1 +10 41 +26  1016.3  -0.7  740  272           
15 18.07.17 тихо ()   20000 м    ясно 
+25.1 +11.6 43 +29  1015.7  -0.5  740  271    +25.1       
18 18.07.17 100 (В) 20000 м    ясно 
+12.2 +11.1 93 +16  1017.1  740  283           
21 18.07.17 100 (В) 20000 м    ясно 
+10.3 +9.7 96 +12  1017.5  0.2  740  285           
00 19.07.17 тихо ()   20000 м    ясно 
+9.1 +8.9 99 +9  1016.9  -0.7  739  287           
03 19.07.17 220 (ЮЗ) 20000 м    3/0 верхняя 
[Ci sp]
+18.2 +13.2 73 +26  1015.8  0.1  739  277  +8.6        сухая 
06 19.07.17 160 (Ю) 20000 м    5/3 600 м верхняя 
[Cu hum|Ci fib]
+23.5 +12.4 50 +28  1014.5  -0.7  739  272           
09 19.07.17 130 (ЮВ) 20000 м    9/8 600 м кучево-дожд., средняя 
[Cb cap|Ac trans]
+24.6 +12.2 46 +29  1013.6  -0.7  738  271           
12 19.07.17 130 (ЮВ) 20000 м    8/4 600 м кучево-дожд., средняя 
[Cb cap|Ac lent]
+25.7 +10.6 39 +28  1012.2  -1.3  737  270           
18 19.07.17 тихо ()   20000 м    10/10 600 м кучево-дожд. 
[Cb cap]
+17.2 +15.3 89 +27  1013.6  0.2  737  276           
21 19.07.17 220 (ЮЗ) 20000 м    8/8 600 м кучево-дожд. 
[Cb cap]
+15 +14.2 95 +24  1013.6  -0.2  737  279           
00 20.07.17 120 (ЮВ) 20000 м    8/3 600 м средняя 
[Cu med, cong|Ac lent]
+13.1 +12.8 98 +20  1013.5  -0.3  737  281           
03 20.07.17 тихо ()   20000 м  {туман}  9/5 600 м кучево-дожд., средняя 
[Cb cap|Ac lent]
+16.2 +15.2 94 +26  1013.8  0.6  738  277  +13        сухая 
06 20.07.17 250 (З) 20000 м  {туман}  6/0 средняя, верхняя 
[Ac lent|Cc]
+22.3 +15 63 +31  1012.9  -0.3  737  272           
09 20.07.17 210 (ЮЗ) 20000 м    8/4 600 м кучево-дожд., средняя 
[Cb cap|Ac lent]
+24.7 +14.9 54 +34  1012.2  -0.4  737  269           
12 20.07.17 100 (В) 20000 м  гроза без осадков  9/9 600 м кучево-дожд. 
[Cb cap]
+21.3 +15.5 70 +31  1012.2  -0.4  737  272           
18 20.07.17 060 (СВ) 4000 м  дымка{гроза, ливн. осадки}  10/10 600 м кучево-дожд. 
[Cb cap]
+16.8 +16.4 97 +30  1013.5  0.6  737  276           
21 20.07.17 110 (В) 20000 м    8/8 600 м кучево-дожд. 
[Cb cap]
+13.2 +13 99 +20  1014  0.1  737  281           
00 21.07.17 210 (ЮЗ) 0500 м  туман  ясно 
+12 +11.9 99 +17  1015  0.8  738  283           
Время (UTC), дата Ветер
(°,м/с) 
Видим.   Явления Облачность Т
(°С)
Тd
(°С)
f(%) Тe
(°С)
Pmin
(гПа)
dP
(гПа)
Po
(мм)
O2
(г/м3)
Тmin Tmax R s Состояние
почвы

Для получения пояснительной информации подведите курсор к названию столбца.

ПОГОДА Нижний Тагил - архив

Всё, что Вы хотите узнать о погоде Нижний Тагил - удобно и подробно!

Выберите нужную дату (начиная с 1 января 2015* года) и нажмите кнопку "Найти".
Будут отображены архивные сводки погоды по пункту Нижний Тагил, начиная с указанной даты.


Отображать данные в формате CSV (для использования в таблицах Excel)


Внимание! Наш архив погоды предназначен исключительно для личного некоммерческого использования в познавательных целях. Если Вам необходимы официальные справки о состоянии погоды (для производственных, юридических, коммерческих и т.п. целей), обращайтесь в органы Росгидромета.

*Примечание: данная дата относится к архиву по метеостанциям СССР (Россия, СНГ, Балтия).
Архив по метеостанциям Зарубежной Европы и Азии (кроме Китая) хранится 10 дней, по другим регионам земного шара (Китай, Африка, Америка, Австралия, Океания) - 1 день.

Нижний Тагил - район местоположения метеостанции


Название, широта, долгота, высота метеостанции:
Нижний Тагил 57.9°ш. 60.1°д. 260 м над ур. моря [Российская Федерация]

Дополнительная информация

В oтличие oт бoльшинства пoгoдных сайтoв мы публикуем пoдрoбную метеoинфoрмацию в детальнoм прoфессиoнальнoм фoрмате.

Характеристики температуры и влажнoсти вoздуха измеряются на высoте 2 м в тени вдали oт зданий и деревьев.
Скoрoсть ветра измеряется на высoте 10 м (на урoвне рoста челoвека скoрoсть ветра ниже в 1.5-2 раза). Если метеoстанция нахoдится в гoрoде или в лесу, тo скoрoсть ветра занижена на 2-4 м/с пo сравнению с oткрытым местoм. Скoрoсть ветра над акватoриями крупных рек и oзёр, а также на вершинах хoлмoв на 2-5 м/с выше, чем в oбычных услoвиях.
Атмoсфернoе давление в разных тoчках местнoсти мoжет значительнo oтличаться oт давления на метеoстанции, в зависимoсти oт услoвий рельефа (при пoдъёме на 10 м давление пoнижается примернo на 1 мм рт.ст.).